Hourly Data Report for October 21, 2015

All times are specified in Local Standard Time (LST). Add 1 hour to adjust for Daylight Saving Time where and when it is observed.

KUGAARUK CLIMATE
NUNAVUT

68°32'15.060" N
89°47'47.020" W
15.80 m
2303094
71407
NBB

Download Data

Hourly Data (October 2015)
Hourly Data Report for October 21, 2015
Temp Definition
°C
Dew Point Temp Definition
°C
Rel Hum Definition
%
Wind Dir Definition
10's deg

Wind Spd Definition
km/h
Visibility Definition
km
Stn Press Definition
kPa
Hmdx Definition


Wind Chill Definition


Weather Definition


TIME
00:00 -7.6 -9.2 88 25 40   100.83   -18 LegendNANA
01:00 -6.8 -8.5 88 25 37   100.83   -16 LegendNANA
02:00 -6.6 -8.7 85 27 29   100.92   -15 LegendNANA
03:00 -6.8 -8.6 87 33 26   100.99   -15 LegendNANA
04:00 -7.8 -10.6 81 33 24   101.13   -16 LegendNANA
05:00 -7.9 -11.3 77 34 24   101.25   -16 LegendNANA
06:00 -8.2 -11.0 80 35 23   101.34   -16 LegendNANA
07:00 -8.3 -11.3 79 34 25   101.42   -17 LegendNANA
08:00 -9.0 -11.8 80 33 26   101.51   -18 LegendNANA
09:00 -9.8 -12.3 82 34 20   101.61   -18 LegendNANA
10:00 -10.6 -13.1 82 29 17   101.68   -18 LegendNANA
11:00 -11.0 -13.9 79 28 15   101.74   -18 LegendNANA
12:00 -11.4 -14.8 76 27 19   101.80   -19 LegendNANA
13:00 -12.2 -15.5 76 28 20   101.86   -21 LegendNANA
14:00 -12.8 -16.3 75 26 24   101.87   -22 LegendNANA
15:00 -13.0 -15.8 79 26 27   101.89   -23 LegendNANA
16:00 -13.3 -15.8 82 28 31   101.90   -24 LegendNANA
17:00 -12.5 -15.3 79 26 26   101.91   -22 LegendNANA
18:00 -12.3 -14.9 80 27 29   101.89   -22 LegendNANA
19:00 -12.6 -15.3 80 27 31   101.93   -23 LegendNANA
20:00 -12.6 -15.2 81 26 28   101.90   -23 LegendNANA
21:00 -12.5 -15.1 81 26 27   101.90   -22 LegendNANA
22:00 -12.5 -15.2 80 25 36   101.89   -24 LegendNANA
23:00 -12.5 -15.0 82 25 37   101.85   -24 LegendNANA

Notes on Data Quality.

Legend

  • E = Estimated
  • M = Missing
  • NA = Not Available
  • ‡ = Partner data that is not subject to review by the National Climate Archives
Date modified: